HVDC transfer

From www.emi.ea.govt.nz provided by the Electricity Authority (New Zealand)
Run at: 20240520171331

Parameters
Date range,09 May 2024 - 09 May 2024
Time scale,Trading period
Show,Average flow (MW)

Period start,Period end,Trading period,Direction,Energy transfer (GWh),Peak flow (MW),Average flow (MW)
09/05/2024 00:00:00,09/05/2024 00:30:00,1,Northward at Haywards,0.027,53,53
09/05/2024 00:30:00,09/05/2024 01:00:00,2,Southward at Benmore,-0.030,-61,-61
09/05/2024 01:00:00,09/05/2024 01:30:00,3,Southward at Benmore,-0.070,-141,-141
09/05/2024 01:30:00,09/05/2024 02:00:00,4,Southward at Benmore,-0.130,-260,-260
09/05/2024 02:00:00,09/05/2024 02:30:00,5,Southward at Benmore,-0.151,-303,-303
09/05/2024 02:30:00,09/05/2024 03:00:00,6,Southward at Benmore,-0.162,-325,-325
09/05/2024 03:00:00,09/05/2024 03:30:00,7,Southward at Benmore,-0.195,-390,-390
09/05/2024 03:30:00,09/05/2024 04:00:00,8,Southward at Benmore,-0.171,-343,-343
09/05/2024 04:00:00,09/05/2024 04:30:00,9,Southward at Benmore,-0.167,-334,-334
09/05/2024 04:30:00,09/05/2024 05:00:00,10,Southward at Benmore,-0.156,-312,-312
09/05/2024 05:00:00,09/05/2024 05:30:00,11,Southward at Benmore,-0.118,-236,-236
09/05/2024 05:30:00,09/05/2024 06:00:00,12,Southward at Benmore,-0.052,-105,-105
09/05/2024 06:00:00,09/05/2024 06:30:00,13,Southward at Benmore,-0.010,-21,-21
09/05/2024 06:30:00,09/05/2024 07:00:00,14,Northward at Haywards,0.096,192,192
09/05/2024 07:00:00,09/05/2024 07:30:00,15,Northward at Haywards,0.196,392,392
09/05/2024 07:30:00,09/05/2024 08:00:00,16,Northward at Haywards,0.232,463,463
09/05/2024 08:00:00,09/05/2024 08:30:00,17,Northward at Haywards,0.188,375,375
09/05/2024 08:30:00,09/05/2024 09:00:00,18,Northward at Haywards,0.154,308,308
09/05/2024 09:00:00,09/05/2024 09:30:00,19,Northward at Haywards,0.122,243,243
09/05/2024 09:30:00,09/05/2024 10:00:00,20,Northward at Haywards,0.104,207,207
09/05/2024 10:00:00,09/05/2024 10:30:00,21,Northward at Haywards,0.107,213,213
09/05/2024 10:30:00,09/05/2024 11:00:00,22,Northward at Haywards,0.101,202,202
09/05/2024 11:00:00,09/05/2024 11:30:00,23,Northward at Haywards,0.124,247,247
09/05/2024 11:30:00,09/05/2024 12:00:00,24,Northward at Haywards,0.137,273,273
09/05/2024 12:00:00,09/05/2024 12:30:00,25,Northward at Haywards,0.127,254,254
09/05/2024 12:30:00,09/05/2024 13:00:00,26,Northward at Haywards,0.135,270,270
09/05/2024 13:00:00,09/05/2024 13:30:00,27,Northward at Haywards,0.129,258,258
09/05/2024 13:30:00,09/05/2024 14:00:00,28,Northward at Haywards,0.107,213,213
09/05/2024 14:00:00,09/05/2024 14:30:00,29,Northward at Haywards,0.064,127,127
09/05/2024 14:30:00,09/05/2024 15:00:00,30,Northward at Haywards,0.071,142,142
09/05/2024 15:00:00,09/05/2024 15:30:00,31,Northward at Haywards,0.091,182,182
09/05/2024 15:30:00,09/05/2024 16:00:00,32,Northward at Haywards,0.123,246,246
09/05/2024 16:00:00,09/05/2024 16:30:00,33,Northward at Haywards,0.156,311,311
09/05/2024 16:30:00,09/05/2024 17:00:00,34,Northward at Haywards,0.174,347,347
09/05/2024 17:00:00,09/05/2024 17:30:00,35,Northward at Haywards,0.255,509,509
09/05/2024 17:30:00,09/05/2024 18:00:00,36,Northward at Haywards,0.271,542,542
09/05/2024 18:00:00,09/05/2024 18:30:00,37,Northward at Haywards,0.290,579,579
09/05/2024 18:30:00,09/05/2024 19:00:00,38,Northward at Haywards,0.292,584,584
09/05/2024 19:00:00,09/05/2024 19:30:00,39,Northward at Haywards,0.300,599,599
09/05/2024 19:30:00,09/05/2024 20:00:00,40,Northward at Haywards,0.303,605,605
09/05/2024 20:00:00,09/05/2024 20:30:00,41,Northward at Haywards,0.308,616,616
09/05/2024 20:30:00,09/05/2024 21:00:00,42,Northward at Haywards,0.307,613,613
09/05/2024 21:00:00,09/05/2024 21:30:00,43,Northward at Haywards,0.313,626,626
09/05/2024 21:30:00,09/05/2024 22:00:00,44,Northward at Haywards,0.320,639,639
09/05/2024 22:00:00,09/05/2024 22:30:00,45,Northward at Haywards,0.263,525,525
09/05/2024 22:30:00,09/05/2024 23:00:00,46,Northward at Haywards,0.228,456,456
09/05/2024 23:00:00,09/05/2024 23:30:00,47,Northward at Haywards,0.178,356,356
09/05/2024 23:30:00,10/05/2024 00:00:00,48,Northward at Haywards,0.121,242,242
